STARLINK-1054

Last updated on Thu Dec 12 2019 00:02:04 GMT+0000 (Coordinated Universal Time)

1 44759U 19074AY 19345.58335648 -.00120228 00000-0 -32206-2 0 9996 2 44759 53.0065 23.7476 0000423 303.5645 156.9553 15.37890355 4705

Satellite not in orbit